SEASAT 1 (10967 NORAD) Tracking and Keplerian Element Data

This shows tracking and keplerian element data for the satellite.

Feedback or suggestion? Click here.




ElementValue
Catalog10967
NameSEASAT 1
Epoch Orbit28820
Epoch Day16.14099852
Epoch Year2022
RAAN197.9633
Inclination107.9958
Eccentricity0.0001472
Argument of Perigee240.7716
Mean Anonmoly119.3281
Mean Motion14.43930741
Decay Rate6E-07
L11 10967U 78064A 22016.14099852 .00000060 00000+0 57531-4 0 9997
L22 10967 107.9958 197.9633 0001472 240.7716 119.3281 14.43930741288204

Live tracking and technical data element details for SEASAT 1 (NORAD 10967). SEASAT 1 can be tracked NOW for your location showing map with azimuth and elevation plus other details from your city location.

Track the satellite on the map from your city or location and see movement details for azimuth, elevation, latitude, longitude, range, height, and movement on the map or in text.







IsCatalogInMostPopularTable: catalog: 10967, numindb: 283
Update: records affected: 1



GetName: 10967 SEASAT 1

Hit Count: updated at: Mon, 17 Jan 2022 00:59:44 GMT